PulseSat

PulseSat

COSMOS 2457 (733)

Last updated on March 20, 2019, 3:12 a.m. UTC

1 36112U 09070B   19078.67302007  .00000017  00000-0  00000+0 0  9996
2 36112  64.1773 161.5899 0005668 169.2827 304.5235  2.13101554 72072
UTC
Height (km)
Latitude
Longitude
Inclination
Orbital Period

Next 30 passes for location: Hong Kong

Rise time Rise Azimuth (degrees) Set time Set Azimuth (degrees) Duration Max altitude (degrees)

No matching passes for this satellites

PulseSat

PulseSat is the new satellites software and hardware trackering solution by Pulsely.
Satellite Two Line Element Set source: US Air Force Space Command

Download PulseSat for iOS
© 2017 Pulsely Limited